Flag for Australia Weather past 2 weeks in Alice Springs, Northern Territory, Australia

Now
64 °F

Passing clouds.


Feels Like: 64 °F
Forecast: 40 / 66 °F
Wind: 9 mph from Southeast

Location: Alice Springs Aerodrome

Current Time: Jun 30, 2015 at 3:47:55 PM

Latest Report: Jun 30, 2015 at 3:30 PM


Visibility: N/A

Pressure: 30.27 "Hg

Humidity: 49%

Dew point: 45 °F

Location of Alice SpringsLocation

Historic Weather in Alice Springs — Graph

°F

Alice Springs temperature yesterday

Maximum temperature yesterday: 72 °F (at 3:30 PM)
Minimum temperature yesterday: 45 °F (at 7:30 AM)
Average temperature yesterday: 59 °F

Past Weeks' High & Low Weather Summary

 TemperatureHumidityPressure
High79 °F (Jun 23, 3:00 PM)100% (Jun 16, 2:30 AM)30.45 "Hg (Jun 16, 2:30 AM)
Low32 °F (Jun 27, 3:00 AM)4% (Jun 22, 1:30 PM)30.01 "Hg (Jun 15, 2:30 PM)
Average53 °F60%30.23 "Hg
* Reported Jun 15 2:30 PM — Jun 30 2:30 PM, Alice Springs, Weather by CustomWeather, © 2015

Note: Actual official high and low records may vary slightly from our data, if they occured in-between our weather recording intervals... More about our weather records

Advertising

Alice Springs weather history for previous 24 hours

 ConditionsComfort  
Time TempWeatherWind HumidityBarometerVisibility
2:30 PM
Tue, Jun 30
61 °FScattered clouds.10 mph59%30.30 "HgN/A
2:00 PM61 °FPartly sunny.9 mph63%30.30 "HgN/A
1:30 PM59 °FPartly sunny.9 mph68%30.33 "HgN/A
1:25 PM61 °FPartly sunny.9 mph63%30.33 "HgN/A
1:00 PM59 °FPartly sunny.8 mph68%30.33 "HgN/A
12:30 PM57 °FOvercast.9 mph72%30.36 "HgN/A
12:00 PM55 °FOvercast.8 mph77%30.36 "HgN/A
11:30 AM55 °FOvercast.10 mph77%30.39 "HgN/A
10:30 AM54 °FLow clouds.12 mph82%30.39 "HgN/A
10:00 AM54 °FLow clouds.10 mph88%30.39 "HgN/A
9:30 AM55 °FOvercast.10 mph82%30.39 "HgN/A
9:00 AM54 °FLow clouds.9 mph88%30.39 "HgN/A
8:30 AM54 °FOvercast.9 mph88%30.36 "HgN/A
8:00 AM54 °FOvercast.9 mph88%30.36 "HgN/A
7:30 AM54 °FOvercast.9 mph88%30.33 "HgN/A
7:00 AM54 °FOvercast.9 mph88%30.33 "HgN/A
6:30 AM54 °FOvercast.9 mph88%30.33 "HgN/A
5:30 AM54 °FOvercast.6 mph88%30.30 "HgN/A
5:00 AM54 °FOvercast.3 mph88%30.30 "HgN/A
4:30 AM52 °FOvercast.3 mph94%30.30 "HgN/A
3:32 AM48 °FPassing clouds.5 mph100%30.27 "HgN/A
3:00 AM50 °FPassing clouds.5 mph94%30.30 "HgN/A
2:35 AM52 °FPassing clouds.5 mph88%30.30 "HgN/A
2:30 AM52 °FPassing clouds.5 mph88%30.30 "HgN/A
2:00 AM52 °FOvercast.6 mph88%30.30 "HgN/A
1:30 AM50 °FPassing clouds.5 mph94%30.30 "HgN/A
1:00 AM50 °FClear.6 mph88%30.30 "HgN/A
12:30 AM50 °FClear.6 mph82%30.30 "HgN/A
12:00 AM52 °FClear.5 mph82%30.30 "HgN/A
11:30 PM
Mon, Jun 29
54 °FClear.6 mph82%30.30 "HgN/A
11:00 PM57 °FClear.8 mph77%30.30 "HgN/A
10:30 PM57 °FPassing clouds.8 mph72%30.30 "HgN/A
10:00 PM55 °FPassing clouds.7 mph77%30.30 "HgN/A
9:30 PM57 °FPassing clouds.6 mph72%30.30 "HgN/A
9:00 PM59 °FPassing clouds.7 mph68%30.30 "HgN/A
8:30 PM61 °FClear.9 mph59%30.27 "HgN/A
8:00 PM61 °FClear.8 mph59%30.27 "HgN/A
7:30 PM63 °FPassing clouds.9 mph56%30.27 "HgN/A
7:00 PM64 °FMostly cloudy.9 mph52%30.24 "HgN/A
6:30 PM66 °FMostly cloudy.8 mph46%30.24 "HgN/A
6:00 PM66 °FClear.7 mph46%30.21 "HgN/A
5:30 PM68 °FClear.8 mph43%30.21 "HgN/A
5:00 PM70 °FSunny.8 mph40%30.21 "Hg10 mi
4:30 PM70 °FSunny.9 mph40%30.18 "Hg10 mi
4:00 PM70 °FSunny.10 mph40%30.18 "Hg10 mi
3:30 PM72 °FSunny.9 mph38%30.18 "Hg10 mi
3:00 PM70 °FPassing clouds.13 mph43%30.21 "HgN/A
Weather by CustomWeather, © 2015

See weather overviewHow to use our weather pages